• Join FlightAware (Why Join?)
  • Login
  • US Flag GB Flag 
13:28 EDT


 

Airport Tracker/Info


-or-


 

Live Flight TrackerFlight Track Log ✈ EJM685 ✈ 01-Jul-2013 ✈ KTTN - KLEX

Flight Track Log - Related Links

Times and Time Zones

All times are in EDT time to prevent confusion due to time zone crossing. See the EJM685 flight status page for this flight to view local times or setup timezone preferences in your user account.

Time Position Orientation Groundspeed Altitude Reporting Facility
EDT Latitude Longitude Course Direction KTS MPH feet Rate Location/Type
09:01 40.2667 -74.8333 288° West 174 200 1,200  Level Philadelphia TRACON
09:02 40.2833 -74.9000 288° West 194 223 2,300 900 Climbing Philadelphia TRACON
09:03 40.3000 -74.9667 288° West 257 296 3,000 420 Climbing Philadelphia TRACON
09:04 40.2833 -75.0500 255° West 245 282 3,200 960 Climbing Philadelphia TRACON
09:05 40.2333 -75.1167 226° Southwest 248 285 5,000 1,800 Climbing Philadelphia TRACON
09:06 40.2000 -75.2000 242° Southwest 252 290 7,100 1,620 Climbing Philadelphia TRACON
09:07 40.1500 -75.2667 226° Southwest 253 291 8,300 900 Climbing Philadelphia TRACON
09:08 40.0833 -75.2833 191° South 270 311 9,000 420 Climbing Philadelphia TRACON
09:09 40.0167 -75.2500 159° South 262 302 9,100 840 Climbing Philadelphia TRACON
09:10 39.9833 -75.3333 242° Southwest 265 305 10,700 1,800 Climbing Philadelphia TRACON
09:11 39.9667 -75.4167 255° West 270 311 12,700 1,740 Climbing Philadelphia TRACON
09:12 39.9417 -75.5008 249° West 284 327 14,300 120 Climbing New York Center
09:13 39.9022 -75.5956 242° Southwest 283 326 13,000 -1,080 Descending New York Center
09:14 39.8314 -75.6475 209° Southwest 269 310 12,200 -540 Descending New York Center
09:15 39.8092 -75.7297 251° West 264 304 12,000 -120 Descending New York Center
09:16 39.8025 -75.8375 265° West 274 315 12,000 900 Level New York Center
09:17 39.8169 -75.9358 281° West 274 315 13,800 2,040 Climbing New York Center
09:18 39.8325 -76.0531 280° West 300 345 16,200 2,400 Climbing New York Center
09:19 39.8500 -76.1736 281° West 359 413 18,700 2,520 Climbing New York Center
09:20 39.8725 -76.3186 281° West 383 441 21,300 2,880 Climbing New York Center
09:21 39.8742 -76.5675 271° West 402 463 26,400 2,700 Climbing Washington Center
09:22 39.8378 -76.7103 252° West 408 470 28,600 2,100 Climbing Washington Center
09:23 39.7967 -76.8553 250° West 419 482 30,700 1,560 Climbing Washington Center
09:24 39.7553 -77.0086 251° West 430 495 31,800 1,560 Climbing Washington Center
09:25 39.7161 -77.1561 251° West 430 495 33,900 2,280 Climbing Washington Center
09:26 39.6767 -77.3008 251° West 436 502 36,500 2,520 Climbing Washington Center
09:27 39.6389 -77.4456 251° West 436 502 39,000 2,340 Climbing Washington Center
09:28 39.6014 -77.5819 250° West 430 495 41,300 1,920 Climbing Washington Center
09:29 39.5636 -77.7181 250° West 419 482 42,900 1,620 Climbing Washington Center
09:30 39.5258 -77.8569 251° West 419 482 44,500 1,260 Climbing Washington Center
09:31 39.4878 -77.9928 250° West 414 476 45,400 780 Climbing Washington Center
09:32 39.4494 -78.1258 250° West 408 470 46,200 660 Climbing Washington Center
09:33 39.4111 -78.2642 250° West 408 470 46,800 360 Climbing Washington Center
09:34 39.3725 -78.4053 251° West 408 470 47,000 60 Climbing Washington Center
09:35 39.3294 -78.5483 249° West 418 481 47,000  Level Washington Center
09:36 39.2883 -78.6942 250° West 430 495 47,000 -60 Level Washington Center
09:37 39.2444 -78.8478 250° West 446 513 46,900 -360 Descending Washington Center
09:38 39.2031 -78.9906 250° West 446 513 46,400 -720 Descending Washington Center
09:39 39.1617 -79.1278 249° West 433 498 45,500 -900 Descending Washington Center
09:40 39.1292 -79.2361 249° West 423 487 44,600 -1,020 Descending Washington Center
09:41 39.0892 -79.3811 250° West 412 474 43,500 -840 Descending Washington Center
09:42 39.0406 -79.5392 248° West 407 468 43,000 -300 Descending Washington Center
09:43 39.0047 -79.6733 251° West 428 493 43,000  Level Washington Center
09:45 38.9206 -79.9397 248° West 429 494 43,000  Level Indianapolis Center
09:46 38.8778 -80.0819 249° West 438 504 43,000  Level Indianapolis Center
09:47 38.8358 -80.2200 249° West 438 504 43,000  Level Indianapolis Center
09:48 38.7939 -80.3661 250° West 438 504 43,000  Level Indianapolis Center
09:49 38.7686 -80.5211 258° West 443 510 43,000 -60 Level Indianapolis Center
09:50 38.7386 -80.7042 258° West 438 504 42,900 -960 Descending Indianapolis Center
09:52 38.6770 -81.0853 258° West  Level FlightAware Approximate
09:52 38.6894 -81.0050 258° West 426 490 40,100  Level Indianapolis Center
09:53 38.6650 -81.1517 258° West 421 484 38,600 -1,500 Descending Indianapolis Center
09:54 38.6389 -81.3072 258° West 438 504 37,000 -1,620 Descending Indianapolis Center
09:55 38.6092 -81.4853 258° West 446 513 35,300 -1,560 Descending Indianapolis Center
09:56 38.5858 -81.6319 259° West 453 521 33,900 -1,440 Descending Indianapolis Center
09:57 38.5578 -81.7931 257° West 459 528 32,400 -1,500 Descending Indianapolis Center
09:58 38.5308 -81.9464 257° West 442 509 30,800 -1,740 Descending Indianapolis Center
09:59 38.5053 -82.0978 258° West 436 502 28,900 -2,160 Descending Indianapolis Center
10:00 38.4744 -82.2719 257° West 420 483 26,400 -2,220 Descending Indianapolis Center
10:02 38.4503 -82.4117 258° West 405 466 24,400 -1,920 Descending Indianapolis Center
10:03 38.4253 -82.5475 257° West 388 447 22,500 -1,680 Descending Indianapolis Center
10:04 38.4019 -82.6814 258° West 388 447 21,000 -1,260 Descending Indianapolis Center
10:05 38.3767 -82.8131 256° West 384 442 19,900 -1,020 Descending Indianapolis Center
10:06 38.3542 -82.9431 258° West 377 434 18,900 -1,020 Descending Indianapolis Center
10:07 38.3253 -83.0939 256° West 376 433 17,900 -1,020 Descending Indianapolis Center
10:08 38.3019 -83.2225 257° West 374 430 16,900 -1,020 Descending Indianapolis Center
10:09 38.2797 -83.3461 257° West 363 418 15,900 -960 Descending Indianapolis Center
10:10 38.2550 -83.4719 256° West 366 421 15,000 -960 Descending Indianapolis Center
10:11 38.2325 -83.5953 257° West 362 417 14,000 -1,020 Descending Indianapolis Center
10:12 38.2056 -83.7356 256° West 353 406 12,900 -1,020 Descending Indianapolis Center
10:13 38.1825 -83.8569 256° West 353 406 12,000 -840 Descending Indianapolis Center
10:14 38.1606 -83.9756 257° West 347 399 11,200 -1,440 Descending Indianapolis Center
10:16 38.1115 -84.1647 258° West  Level FlightAware Approximate
10:16 38.1472 -84.1794 258° West 290 334 7,700  Level Indianapolis Center
10:17 38.1400 -84.2778 265° West 284 327 5,800 -1,800 Descending Indianapolis Center
10:18 38.1339 -84.3744 265° West 280 322 4,100 -1,440 Descending Indianapolis Center
10:19 38.1258 -84.4808 265° West 271 312 2,900 -780 Descending Indianapolis Center
10:20 38.1000 -84.5356 239° Southwest 251 289 2,500 -600 Descending Indianapolis Center
10:21 38.0700 -84.5686 221° Southwest 179 206 1,700 -540 Descending Indianapolis Center
10:22 38.0378 -84.6033 220° Southwest 171 197 1,400 -300 Descending Indianapolis Center
10:24 38.0333 -84.6000 270° West  Level FlightAware Approximate
10:31 38.0368 -84.6086 270° West  Level Estimated
10:32 38.0368 -84.6086 270° West  Level Estimated
10:33 38.0368 -84.6086 270° West  Level Estimated
10:34 38.0368 -84.6086 270° West  Level Estimated
10:35 38.0368 -84.6086 270° West  Level Estimated
10:36 38.0368 -84.6086 270° West  Level Estimated
10:37 38.0368 -84.6086 270° West  Level Estimated
10:38 38.0368 -84.6086 270° West  Level Estimated
10:39 38.0368 -84.6086 270° West  Level Estimated